TimeCDT,TemperatureF,Dew PointF,Humidity,Sea Level PressureIn,VisibilityMPH,Wind Direction,Wind SpeedMPH,Gust SpeedMPH,PrecipitationIn,Events,Conditions,WindDirDegrees,DateUTC
12:53 AM,63.0,57.9,84,30.03,10.0,Calm,Calm,-,N/A,,Clear,0,2013-10-09 05:53:00
1:53 AM,62.1,57.9,86,30.03,10.0,Calm,Calm,-,N/A,,Clear,0,2013-10-09 06:53:00
2:53 AM,61.0,57.0,87,30.03,10.0,Calm,Calm,-,N/A,,Clear,0,2013-10-09 07:53:00
3:53 AM,60.1,57.0,90,30.02,10.0,Calm,Calm,-,N/A,,Clear,0,2013-10-09 08:53:00
4:53 AM,61.0,57.0,87,30.03,10.0,Calm,Calm,-,N/A,,Clear,0,2013-10-09 09:53:00
5:53 AM,60.1,57.0,90,30.04,10.0,Calm,Calm,-,N/A,,Clear,0,2013-10-09 10:53:00
6:53 AM,60.1,57.0,90,30.05,10.0,Calm,Calm,-,N/A,,Partly Cloudy,0,2013-10-09 11:53:00
7:53 AM,63.0,57.9,84,30.05,10.0,Calm,Calm,-,N/A,,Clear,0,2013-10-09 12:53:00
8:53 AM,69.1,62.1,78,30.07,10.0,ENE,4.6,-,N/A,,Clear,70,2013-10-09 13:53:00
9:53 AM,73.9,62.1,66,30.09,10.0,ENE,3.5,-,N/A,,Clear,60,2013-10-09 14:53:00
10:53 AM,77.0,61.0,58,30.09,10.0,Variable,3.5,-,N/A,,Partly Cloudy,0,2013-10-09 15:53:00
11:53 AM,78.1,62.1,58,30.09,10.0,East,5.8,-,N/A,,Scattered Clouds,100,2013-10-09 16:53:00
12:53 PM,78.1,60.1,54,30.08,10.0,SW,4.6,-,N/A,,Scattered Clouds,220,2013-10-09 17:53:00
1:53 PM,82.0,61.0,49,30.05,10.0,ENE,6.9,-,N/A,,Scattered Clouds,70,2013-10-09 18:53:00
2:53 PM,80.1,60.1,50,30.03,10.0,SE,4.6,-,N/A,,Scattered Clouds,140,2013-10-09 19:53:00
3:53 PM,81.0,61.0,50,30.02,10.0,ESE,4.6,-,N/A,,Scattered Clouds,120,2013-10-09 20:53:00
4:53 PM,81.0,62.1,52,30.01,10.0,East,5.8,-,N/A,,Scattered Clouds,100,2013-10-09 21:53:00
5:53 PM,79.0,62.1,56,30.01,10.0,ESE,8.1,-,N/A,,Partly Cloudy,110,2013-10-09 22:53:00
6:53 PM,75.9,61.0,60,30.01,10.0,ESE,5.8,-,N/A,,Partly Cloudy,120,2013-10-09 23:53:00
7:53 PM,73.0,60.1,64,30.02,10.0,ESE,6.9,-,N/A,,Clear,120,2013-10-10 00:53:00
8:53 PM,71.1,61.0,70,30.02,10.0,SE,4.6,-,N/A,,Clear,130,2013-10-10 01:53:00
9:53 PM,70.0,61.0,73,30.04,10.0,SE,3.5,-,N/A,,Clear,140,2013-10-10 02:53:00
10:53 PM,68.0,61.0,78,30.05,10.0,SE,3.5,-,N/A,,Clear,140,2013-10-10 03:53:00
11:53 PM,66.9,61.0,81,30.05,10.0,SE,4.6,-,N/A,,Clear,130,2013-10-10 04:53:00